This demonstration page uses our WeatherBlox Daily Observations layout. Learn more.

Left ArrowRight Arrow

39.01783, -85.05884

Hourly Observations for March 1, 2020

Temp ( °F °C ) Dew Point ( °F °C ) Humidity (%) Winds ( mph kmh ) Pressure ( in mb ) Visibility ( mi km ) Precip ( " mm )
12:52 am 00:52 Clear 26 -3.3 16 -8.9 66 66 S 6 9 30.21 1023 10 16 0.00 0.00
1:52 am 01:52 Clear 26 -3.3 12 -11.1 55 55 SSW 7 11 30.21 1023 10 16 0.00 0.00
2:52 am 02:52 Clear 26 -3.3 14 -10 60 60 S 5 7 30.20 1023 10 16 0.00 0.00
3:52 am 03:52 Mostly Clear 26 -3.3 14 -10 60 60 S 6 9 30.18 1022 10 16 0.00 0.00
4:52 am 04:52 Mostly Clear 25 -3.9 14 -10 63 63 S 7 11 30.18 1022 10 16 0.00 0.00
5:52 am 05:52 Partly Cloudy 25 -3.9 15 -9.4 66 66 S 7 11 30.17 1022 10 16 0.00 0.00
6:52 am 06:52 Mostly Clear 25 -3.9 15 -9.4 66 66 S 8 13 30.17 1022 10 16 0.00 0.00
7:52 am 07:52 Mostly Cloudy 27 -2.8 17 -8.3 66 66 S 8 13 30.17 1022 10 16 0.00 0.00
8:52 am 08:52 Mostly Cloudy 34 1.1 19 -7.2 54 54 S 10 17 30.17 1022 10 16 0.00 0.00
9:52 am 09:52 Mostly Cloudy 39 3.9 20 -6.7 46 46 S 10 17 30.15 1021 10 16 0.00 0.00
10:52 am 10:52 Mostly Cloudy 46 7.8 22 -5.6 38 38 S 12 19 30.13 1020 10 16 0.00 0.00
11:52 am 11:52 Mostly Cloudy 51 10.6 25 -3.9 36 36 S 15 24 30.10 1019 10 16 0.00 0.00
12:52 pm 12:52 Mostly Cloudy 56 13.3 29 -1.7 36 36 S 17 28 30.06 1018 10 16 0.00 0.00
1:52 pm 13:52 Mostly Cloudy 60 15.6 31 -0.6 33 33 S 16 26 30.01 1016 10 16 0.00 0.00
2:52 pm 14:52 Partly Cloudy 62 16.7 33 0.6 34 34 S 17 28 29.98 1015 10 16 0.00 0.00
3:52 pm 15:52 Mostly Cloudy 62 16.7 33 0.6 34 34 S 18 30 29.96 1015 10 16 0.00 0.00
4:52 pm 16:52 Mostly Cloudy 62 16.7 32 0 32 32 SSW 15 24 29.94 1014 10 16 0.00 0.00
5:52 pm 17:52 Mostly Cloudy 58 14.4 33 0.6 39 39 S 12 19 29.93 1014 10 16 0.00 0.00
6:52 pm 18:52 Mostly Cloudy 54 12.2 34 1.1 47 47 S 10 17 29.93 1014 10 16 0.00 0.00
7:52 pm 19:52 Mostly Cloudy 54 12.2 34 1.1 47 47 S 9 15 29.93 1014 10 16 0.00 0.00
8:52 pm 20:52 Mostly Cloudy 57 13.9 33 0.6 41 41 S 12 19 29.92 1013 10 16 0.00 0.00
9:52 pm 21:52 Mostly Cloudy 58 14.4 33 0.6 39 39 SSW 15 24 29.92 1013 10 16 0.00 0.00
10:52 pm 22:52 Cloudy 58 14.4 33 0.6 39 39 SSW 12 19 29.91 1013 10 16 0.00 0.00
11:52 pm 23:52 Cloudy 58 14.4 34 1.1 41 41 SSW 18 30 29.91 1013 10 16 0.00 0.00

Powered by AerisWeather